Theta_e
337 337 338 339 340 340 340 339 339 339 338 338 337 336 334 333 330 329 328 328 329 330 326 323 322 321 321 318 319 320 324 325
335 336 337 337 337 338 339 339 339 339 338 338 337 337 337 336 335 333 330 329 328 329 329 329 326 324 323 322 319 319 321 324
332 332 334 333 334 335 336 336 336 336 336 337 337 336 336 336 336 336 335 332 330 329 329 329 330 330 326 324 323 320 319 320
337 337 337 336 336 335 335 335 335 335 335 335 336 336 335 334 333 334 336 337 336 333 331 330 330 330 330 329 326 323 320 319
344 343 342 340 338 337 335 335 334 334 335 335 335 335 336 332 336 336 333 333 336 337 337 335 333 332 332 332 331 330 326 323
345 343 342 342 342 338 337 337 337 337 337 338 340 340 339 338 337 337 337 338 335 333 333 335 336 336 336 336 335 334 332 331
342 342 341 341 342 342 341 339 339 339 339 340 340 340 339 337 338 337 337 336 336 336 337 337 337 337 337 335 336 335 336 335
337 336 336 337 337 338 339 341 340 339 339 339 339 339 338 338 338 337 336 336 337 336 336 337 336 337 336 336 336 336 336 336
327 327 328 331 334 335 335 335 334 333 335 335 334 334 334 332 331 330 330 330 331 331 330 330 332 334 335 336 334 334 335 334
320 319 321 322 324 325 324 322 323 322 320 320 319 319 320 321 320 318 317 317 319 319 320 322 323 324 328 334 333 334 335 334
315 313 312 311 311 311 311 310 309 309 309 309 309 309 308 308 308 308 307 307 307 306 306 307 307 308 311 316 325 329 330 330
310 309 308 308 307 308 308 308 308 306 306 305 305 304 303 302 302 302 302 302 302 302 302 302 302 303 303 305 306 309 310 314
307 307 307 307 307 306 307 304 303 301 301 301 300 300 300 299 299 299 298 298 298 298 298 298 299 299 300 302 302 303 304 306
308 308 307 307 306 304 301 302 301 300 299 299 299 299 299 298 299 299 298 297 297 297 297 297 298 300 309 310 310 309 306 311
308 307 307 306 304 301 300 299 300 299 300 299 298 298 297 300 302 302 302 300 298 297 297 299 302 300 304 308 310 311 311 306
308 307 306 306 303 301 300 299 299 299 299 299 296 297 299 302 302 302 302 301 300 300 300 301 302 301 303 305 305 308 309 307
307 312 317 317 315 303 302 302 299 299 299 299 296 297 300 301 301 301 302 302 302 303 302 302 302 303 302 302 301 301 302 307
310 314 312 313 311 305 301 299 299 299 299 299 297 297 300 301 301 301 300 300 300 300 301 302 303 302 302 302 301 303 304 305
309 308 307 303 301 305 304 299 299 299 299 298 298 296 298 300 301 300 299 299 299 299 299 299 299 299 299 299 299 299 300 301
306 310 313 304 304 310 302 299 299 299 298 298 297 296 297 299 301 300 300 300 300 300 300 300 300 300 300 300 300 300 299 299
Wind_Speed
19 19 19 18 18 17 16 14 12 11 10 10 10 10 11 11 11 11 11 10 9 9 8 8 9 10 11 10 11 12 12 11
17 17 16 16 16 17 17 17 15 15 14 13 13 13 13 14 14 15 14 14 13 13 12 11 10 12 14 14 14 15 16 16
17 17 17 18 19 19 19 19 19 18 17 16 16 15 14 14 15 16 17 17 17 17 17 16 15 15 16 17 18 19 20 20
21 21 20 19 19 20 20 20 18 18 18 19 18 15 14 14 15 16 17 19 20 20 21 20 20 20 19 19 21 23 23 24
19 19 17 16 17 19 20 20 19 19 18 17 17 16 13 15 16 16 18 20 21 21 21 22 23 23 24 24 25 26 27 27
15 15 15 14 14 15 17 17 18 17 16 15 13 10 9 12 15 15 15 17 20 22 22 22 23 25 26 27 28 28 29 30
10 10 10 10 13 15 18 17 15 14 14 12 11 12 13 13 14 15 17 18 20 18 18 20 22 22 24 28 30 30 31 34
8 7 5 4 5 7 9 11 10 8 7 5 7 8 9 11 12 15 17 19 21 23 24 25 25 24 24 25 27 26 29 33
7 4 3 3 5 6 7 8 7 7 7 7 7 8 10 11 13 15 16 18 21 24 23 24 26 28 28 25 29 33 31 32
8 6 6 5 6 7 6 5 4 3 2 4 7 9 12 15 17 19 20 21 23 23 25 26 26 25 26 24 30 28 27 30
9 9 7 6 6 5 4 3 1 2 5 7 9 12 15 17 19 21 23 24 24 24 24 25 24 25 26 27 29 31 27 30
9 9 8 6 5 3 3 3 4 7 9 12 15 18 21 23 25 27 27 27 27 27 27 26 25 26 27 28 29 28 27 25
9 8 8 5 2 3 4 7 9 11 14 17 19 21 23 23 24 25 25 25 23 22 22 22 21 20 23 24 27 27 29 29
9 7 6 3 7 9 10 12 14 18 21 22 23 22 23 24 24 23 23 21 18 17 17 17 16 14 11 13 10 13 16 15
8 5 3 7 11 13 12 12 15 19 20 22 23 24 23 21 18 17 16 15 14 13 13 12 11 13 10 7 6 5 15 19
12 5 2 9 13 14 15 18 20 22 23 23 22 22 23 22 18 12 7 6 7 9 9 10 10 12 12 11 13 13 11 14
14 10 21 31 19 18 20 20 21 24 25 25 22 19 19 18 16 12 6 4 4 5 6 6 7 9 10 13 15 17 19 15
17 9 5 9 15 14 19 20 21 24 24 23 20 18 17 14 13 11 9 7 5 5 6 7 9 11 13 15 16 14 15 15
13 9 5 7 7 14 20 19 20 22 24 24 22 19 19 17 15 12 11 9 8 8 7 7 8 10 11 13 16 17 19 22
18 13 13 8 12 17 18 19 21 22 24 24 22 21 20 19 18 16 16 15 13 13 15 15 14 17 17 19 22 23 24 22
Wind_Direction
177 185 191 196 202 205 211 215 220 225 232 239 246 250 251 251 250 250 249 250 253 259 261 261 266 273 274 264 260 260 257 257
182 189 195 200 206 212 216 220 223 226 231 237 242 246 250 255 256 256 255 253 253 255 256 257 258 262 267 268 262 262 258 258
188 196 201 206 210 215 218 219 222 226 228 231 234 238 243 249 255 256 255 255 255 256 257 257 256 255 258 263 265 260 263 262
194 199 201 205 212 215 218 222 226 230 232 232 233 236 242 252 256 254 254 256 256 256 257 257 257 257 256 258 260 266 262 263
203 205 209 210 212 211 214 217 222 227 232 238 238 234 226 265 256 256 253 251 253 255 257 259 261 263 263 260 261 262 266 266
223 226 226 215 217 216 216 216 220 219 214 214 215 221 242 252 260 268 274 274 263 255 252 252 257 258 259 262 261 261 264 264
219 227 229 225 224 225 223 221 223 228 228 214 213 222 230 246 258 255 265 274 274 268 270 265 266 269 266 264 263 261 260 262
204 213 228 219 223 223 218 214 216 226 230 219 239 244 243 243 252 254 266 268 269 270 266 265 261 261 263 266 264 265 266 264
184 188 183 190 166 169 179 179 197 209 218 229 239 241 252 261 264 264 265 265 268 270 267 266 266 265 259 262 269 266 265 272
177 171 164 160 147 145 142 139 163 196 227 267 283 287 284 279 280 280 281 281 278 275 274 273 271 269 262 258 256 260 273 272
166 149 136 121 113 109 110 97 45 331 315 305 300 295 293 293 290 287 284 282 281 280 278 277 276 273 270 266 262 264 261 265
151 139 132 128 118 80 18 336 316 319 316 313 307 304 302 300 297 294 290 287 284 283 282 280 280 281 279 274 270 266 269 269
148 143 138 123 68 347 303 324 336 332 326 323 321 319 317 313 307 301 294 289 287 286 284 285 286 288 292 289 286 279 270 267
160 143 124 66 4 352 348 341 340 341 341 333 327 324 323 321 314 304 294 288 284 281 284 289 289 289 296 302 304 292 278 242
171 147 66 15 2 352 349 348 344 340 331 329 328 329 330 329 322 308 293 285 279 272 272 283 293 302 303 299 309 275 308 283
178 181 20 3 355 347 340 342 344 338 336 337 332 337 342 343 339 329 308 280 274 270 271 277 289 295 296 286 280 280 289 296
192 210 282 290 304 328 325 335 338 338 337 333 328 329 338 341 341 341 352 317 280 274 267 271 278 284 282 287 287 285 287 278
223 260 284 304 301 317 322 327 325 326 326 321 319 319 325 335 337 333 327 320 301 285 281 279 279 280 279 279 285 284 284 286
220 202 258 298 310 324 317 314 318 318 320 321 315 309 313 318 315 319 316 313 309 303 290 279 282 287 289 291 292 293 294 294
216 234 267 251 299 307 307 301 308 314 321 321 314 307 308 307 307 309 306 302 301 305 310 309 309 306 304 303 301 297 294 290